Location: *
(37.4917°N, 71.5558°E)
Time: 03:01:39
(UTC+00:00)

ARGOS - Pass Details

Date: 09 April 2020
Orbit: 820 x 834 km, 98.5° (Epoch: 31 May)

Event Time Altitude Azimuth Distance (km) Brightness Sun altitude
Exits shadow 14:16:33 - 143° (SE) 3,246 5.8 -7.1°
Reaches altitude 10° 14:18:44 10° 136° (SE) 2,426 5.1 -7.6°
Maximum altitude 14:23:40 38° 70° (ENE) 1,246 3.7 -8.5°
Drops below altitude 10° 14:28:35 10° 4° (N) 2,432 5.8 -9.4°
Sets 14:31:04 0° 357° (N) 3,367 6.6 -9.9°
